Year,Month,Day,Hour,Minute,Value (Times are PST for temperature in C)
2015,05,20,00,00,14.70
2015,05,20,00,01,14.70
2015,05,20,00,02,14.60
2015,05,20,00,03,14.60
2015,05,20,00,04,14.60
2015,05,20,00,05,14.50
2015,05,20,00,06,14.50
2015,05,20,00,07,14.50
2015,05,20,00,08,14.50
2015,05,20,00,09,14.50
2015,05,20,00,10,14.60
2015,05,20,00,11,14.60
2015,05,20,00,12,14.70
2015,05,20,00,13,14.70
2015,05,20,00,14,14.70
2015,05,20,00,15,14.80
2015,05,20,00,16,14.80
2015,05,20,00,17,14.90
2015,05,20,00,18,14.90
2015,05,20,00,19,15.00
2015,05,20,00,20,15.00
2015,05,20,00,21,15.00
2015,05,20,00,22,15.00
2015,05,20,00,23,15.00
2015,05,20,00,24,15.00
2015,05,20,00,25,14.90
2015,05,20,00,26,14.80
2015,05,20,00,27,14.80
2015,05,20,00,28,14.70
2015,05,20,00,29,14.60
2015,05,20,00,30,14.50
2015,05,20,00,31,14.50
2015,05,20,00,32,14.40
2015,05,20,00,33,14.30
2015,05,20,00,34,14.30
2015,05,20,00,35,14.30
2015,05,20,00,36,14.20
2015,05,20,00,37,14.20
2015,05,20,00,38,14.20
2015,05,20,00,39,14.10
2015,05,20,00,40,14.10
2015,05,20,00,41,14.00
2015,05,20,00,42,13.90
2015,05,20,00,43,13.90
2015,05,20,00,44,13.90
2015,05,20,00,45,13.80
2015,05,20,00,46,13.90
2015,05,20,00,47,13.90
2015,05,20,00,48,14.00
2015,05,20,00,49,14.00
2015,05,20,00,50,14.10
2015,05,20,00,51,14.10
2015,05,20,00,52,14.20
2015,05,20,00,53,14.30
2015,05,20,00,54,14.40
2015,05,20,00,55,14.50
2015,05,20,00,56,14.60
2015,05,20,00,57,14.60
2015,05,20,00,58,14.70
2015,05,20,00,59,14.90
2015,05,20,01,00,15.00
2015,05,20,01,01,15.00
2015,05,20,01,02,15.10
2015,05,20,01,03,15.20
2015,05,20,01,04,15.30
2015,05,20,01,05,15.40
2015,05,20,01,06,15.50
2015,05,20,01,07,15.60
2015,05,20,01,08,15.60
2015,05,20,01,09,15.70
2015,05,20,01,10,15.80
2015,05,20,01,11,15.80
2015,05,20,01,12,15.90
2015,05,20,01,13,16.00
2015,05,20,01,14,16.20
2015,05,20,01,15,16.30
2015,05,20,01,16,16.40
2015,05,20,01,17,16.40
2015,05,20,01,18,16.50
2015,05,20,01,19,16.60
2015,05,20,01,20,16.70
2015,05,20,01,21,16.70
2015,05,20,01,22,16.80
2015,05,20,01,23,16.80
2015,05,20,01,24,16.80
2015,05,20,01,25,16.80
2015,05,20,01,26,16.80
2015,05,20,01,27,16.80
2015,05,20,01,28,16.80
2015,05,20,01,29,16.80
2015,05,20,01,30,16.80
2015,05,20,01,31,16.80
2015,05,20,01,32,16.80
2015,05,20,01,33,16.60
2015,05,20,01,34,16.40
2015,05,20,01,35,16.30
2015,05,20,01,36,16.20
2015,05,20,01,37,16.10
2015,05,20,01,38,16.00
2015,05,20,01,39,15.90
2015,05,20,01,40,15.90
2015,05,20,01,41,15.80
2015,05,20,01,42,15.80
2015,05,20,01,43,15.70
2015,05,20,01,44,15.60
2015,05,20,01,45,15.50
2015,05,20,01,46,15.50
2015,05,20,01,47,15.40
2015,05,20,01,48,15.30
2015,05,20,01,49,15.30
2015,05,20,01,50,15.20
2015,05,20,01,51,15.10
2015,05,20,01,52,15.10
2015,05,20,01,53,15.00
2015,05,20,01,54,15.00
2015,05,20,01,55,15.00
2015,05,20,01,56,15.00
2015,05,20,01,57,15.00
2015,05,20,01,58,15.00
2015,05,20,01,59,14.90
2015,05,20,02,00,14.90
2015,05,20,02,01,14.80
2015,05,20,02,02,14.80
2015,05,20,02,03,14.70
2015,05,20,02,04,14.70
2015,05,20,02,05,14.60
2015,05,20,02,06,14.60
2015,05,20,02,07,14.60
2015,05,20,02,08,14.60
2015,05,20,02,09,14.50
2015,05,20,02,10,14.40
2015,05,20,02,11,14.40
2015,05,20,02,12,14.30
2015,05,20,02,13,14.30
2015,05,20,02,14,14.20
2015,05,20,02,15,14.20
2015,05,20,02,16,14.10
2015,05,20,02,17,14.10
2015,05,20,02,18,14.10
2015,05,20,02,19,14.10
2015,05,20,02,20,14.10
2015,05,20,02,21,14.20
2015,05,20,02,22,14.20
2015,05,20,02,23,14.20
2015,05,20,02,24,14.30
2015,05,20,02,25,14.30
2015,05,20,02,26,14.30
2015,05,20,02,27,14.40
2015,05,20,02,28,14.40
2015,05,20,02,29,14.40
2015,05,20,02,30,14.40
2015,05,20,02,31,14.40
2015,05,20,02,32,14.30
2015,05,20,02,33,14.30
2015,05,20,02,34,14.20
2015,05,20,02,35,14.10
2015,05,20,02,36,14.10
2015,05,20,02,37,14.00
2015,05,20,02,38,14.00
2015,05,20,02,39,13.90
2015,05,20,02,40,13.90
2015,05,20,02,41,14.00
2015,05,20,02,42,14.00
2015,05,20,02,43,14.10
2015,05,20,02,44,14.10
2015,05,20,02,45,14.10
2015,05,20,02,46,14.10
2015,05,20,02,47,14.10
2015,05,20,02,48,14.10
2015,05,20,02,49,14.10
2015,05,20,02,50,14.20
2015,05,20,02,51,14.10
2015,05,20,02,52,14.20
2015,05,20,02,53,14.20
2015,05,20,02,54,14.20
2015,05,20,02,55,14.20
2015,05,20,02,56,14.20
2015,05,20,02,57,14.20
2015,05,20,02,58,14.20
2015,05,20,02,59,14.20
2015,05,20,03,00,14.30
2015,05,20,03,01,14.30
2015,05,20,03,02,14.30
2015,05,20,03,03,14.30
2015,05,20,03,04,14.40
2015,05,20,03,05,14.40
2015,05,20,03,06,14.50
2015,05,20,03,07,14.50
2015,05,20,03,08,14.50
2015,05,20,03,09,14.50
2015,05,20,03,10,14.40
2015,05,20,03,11,14.20
2015,05,20,03,12,14.10
2015,05,20,03,13,13.90
2015,05,20,03,14,13.80
2015,05,20,03,15,13.60
2015,05,20,03,16,13.50
2015,05,20,03,17,13.40
2015,05,20,03,18,13.30
2015,05,20,03,19,13.30
2015,05,20,03,20,13.30
2015,05,20,03,21,13.30
2015,05,20,03,22,13.30
2015,05,20,03,23,13.30
2015,05,20,03,24,13.20
2015,05,20,03,25,13.20
2015,05,20,03,26,13.20
2015,05,20,03,27,13.20
2015,05,20,03,28,13.20
2015,05,20,03,29,13.10
2015,05,20,03,30,13.10
2015,05,20,03,31,13.10
2015,05,20,03,32,13.00
2015,05,20,03,33,13.00
2015,05,20,03,34,12.90
2015,05,20,03,35,12.90
2015,05,20,03,36,12.80
2015,05,20,03,37,12.70
2015,05,20,03,38,12.60
2015,05,20,03,39,12.60
2015,05,20,03,40,12.50
2015,05,20,03,41,12.50
2015,05,20,03,42,12.40
2015,05,20,03,43,12.40
2015,05,20,03,44,12.40
2015,05,20,03,45,12.40
2015,05,20,03,46,12.40
2015,05,20,03,47,12.40
2015,05,20,03,48,12.40
2015,05,20,03,49,12.30
2015,05,20,03,50,12.30
2015,05,20,03,51,12.20
2015,05,20,03,52,12.20
2015,05,20,03,53,12.10
2015,05,20,03,54,12.00
2015,05,20,03,55,12.00
2015,05,20,03,56,11.90
2015,05,20,03,57,11.90
2015,05,20,03,58,11.80
2015,05,20,03,59,11.80
2015,05,20,04,00,11.80
2015,05,20,04,01,11.80
2015,05,20,04,02,11.90
2015,05,20,04,03,11.90
2015,05,20,04,04,11.90
2015,05,20,04,05,11.90
2015,05,20,04,06,11.90
2015,05,20,04,07,11.80
2015,05,20,04,08,11.80
2015,05,20,04,09,11.80
2015,05,20,04,10,11.80
2015,05,20,04,11,11.70
2015,05,20,04,12,11.70
2015,05,20,04,13,11.70
2015,05,20,04,14,11.70
2015,05,20,04,15,11.70
2015,05,20,04,16,11.70
2015,05,20,04,17,11.60
2015,05,20,04,18,11.60
2015,05,20,04,19,11.60
2015,05,20,04,20,11.60
2015,05,20,04,21,11.60
2015,05,20,04,22,11.60
2015,05,20,04,23,11.60
2015,05,20,04,24,11.60
2015,05,20,04,25,11.60
2015,05,20,04,26,11.60
2015,05,20,04,27,11.60
2015,05,20,04,28,11.60
2015,05,20,04,29,11.60
2015,05,20,04,30,11.60
2015,05,20,04,31,11.70
2015,05,20,04,32,11.70
2015,05,20,04,33,11.70
2015,05,20,04,34,11.70
2015,05,20,04,35,11.80
2015,05,20,04,36,11.80
2015,05,20,04,37,11.80
2015,05,20,04,38,11.80
2015,05,20,04,39,11.80
2015,05,20,04,40,11.80
2015,05,20,04,41,11.80
2015,05,20,04,42,11.90
2015,05,20,04,43,11.90
2015,05,20,04,44,11.90
2015,05,20,04,45,11.90
2015,05,20,04,46,12.00
2015,05,20,04,47,12.10
2015,05,20,04,48,12.10
2015,05,20,04,49,12.20
2015,05,20,04,50,12.30
2015,05,20,04,51,12.40
2015,05,20,04,52,12.50
2015,05,20,04,53,12.50
2015,05,20,04,54,12.60
2015,05,20,04,55,12.60
2015,05,20,04,56,12.60
2015,05,20,04,57,12.70
2015,05,20,04,58,12.70
2015,05,20,04,59,12.70
2015,05,20,05,00,12.70
2015,05,20,05,01,12.70
2015,05,20,05,02,12.70
2015,05,20,05,03,12.70
2015,05,20,05,04,12.70
2015,05,20,05,05,12.70
2015,05,20,05,06,12.70
2015,05,20,05,07,12.70
2015,05,20,05,08,12.70
2015,05,20,05,09,12.70
2015,05,20,05,10,12.70
2015,05,20,05,11,12.70
2015,05,20,05,12,12.80
2015,05,20,05,13,12.80
2015,05,20,05,14,12.80
2015,05,20,05,15,12.80
2015,05,20,05,16,12.90
2015,05,20,05,17,12.90
2015,05,20,05,18,13.00
2015,05,20,05,19,13.00
2015,05,20,05,20,13.10
2015,05,20,05,21,13.10
2015,05,20,05,22,13.20
2015,05,20,05,23,13.20
2015,05,20,05,24,13.30
2015,05,20,05,25,13.30
2015,05,20,05,26,13.30
2015,05,20,05,27,13.40
2015,05,20,05,28,13.40
2015,05,20,05,29,13.40
2015,05,20,05,30,13.40
2015,05,20,05,31,13.40
2015,05,20,05,32,13.40
2015,05,20,05,33,13.40
2015,05,20,05,34,13.30
2015,05,20,05,35,13.30
2015,05,20,05,36,13.20
2015,05,20,05,37,13.20
2015,05,20,05,38,13.10
2015,05,20,05,39,13.10
2015,05,20,05,40,13.10
2015,05,20,05,41,13.00
2015,05,20,05,42,13.00
2015,05,20,05,43,13.00
2015,05,20,05,44,13.00
2015,05,20,05,45,13.00
2015,05,20,05,46,13.00
2015,05,20,05,47,13.00
2015,05,20,05,48,13.00
2015,05,20,05,49,13.00
2015,05,20,05,50,13.00
2015,05,20,05,51,13.10
2015,05,20,05,52,13.10
2015,05,20,05,53,13.10
2015,05,20,05,54,13.10
2015,05,20,05,55,13.10
2015,05,20,05,56,13.10
2015,05,20,05,57,13.10
2015,05,20,05,58,13.10
2015,05,20,05,59,13.10
2015,05,20,06,00,13.00
2015,05,20,06,01,13.00
2015,05,20,06,02,12.90
2015,05,20,06,03,12.90
2015,05,20,06,04,12.90
2015,05,20,06,05,12.90
2015,05,20,06,06,12.90
2015,05,20,06,07,12.80
2015,05,20,06,08,12.80
2015,05,20,06,09,12.80
2015,05,20,06,10,12.80
2015,05,20,06,11,12.80
2015,05,20,06,12,12.80
2015,05,20,06,13,12.80
2015,05,20,06,14,12.80
2015,05,20,06,15,12.80
2015,05,20,06,16,12.90
2015,05,20,06,17,12.90
2015,05,20,06,18,12.90
2015,05,20,06,19,13.00
2015,05,20,06,20,13.00
2015,05,20,06,21,13.10
2015,05,20,06,22,13.10
2015,05,20,06,23,13.10
2015,05,20,06,24,13.10
2015,05,20,06,25,13.20
2015,05,20,06,26,13.20
2015,05,20,06,27,13.20
2015,05,20,06,28,13.30
2015,05,20,06,29,13.30
2015,05,20,06,30,13.40
2015,05,20,06,31,13.50
2015,05,20,06,32,13.60
2015,05,20,06,33,13.60
2015,05,20,06,34,13.70
2015,05,20,06,35,13.80
2015,05,20,06,36,13.90
2015,05,20,06,37,14.00
2015,05,20,06,38,14.00
2015,05,20,06,39,14.10
2015,05,20,06,40,14.20
2015,05,20,06,41,14.20
2015,05,20,06,42,14.20
2015,05,20,06,43,14.30
2015,05,20,06,44,14.30
2015,05,20,06,45,14.30
2015,05,20,06,46,14.30
2015,05,20,06,47,14.30
2015,05,20,06,48,14.30
2015,05,20,06,49,14.30
2015,05,20,06,50,14.30
2015,05,20,06,51,14.30
2015,05,20,06,52,14.30
2015,05,20,06,53,14.30
2015,05,20,06,54,14.30
2015,05,20,06,55,14.40
2015,05,20,06,56,14.40
2015,05,20,06,57,14.40
2015,05,20,06,58,14.40
2015,05,20,06,59,14.40
2015,05,20,07,00,14.40
2015,05,20,07,01,14.40
2015,05,20,07,02,14.40
2015,05,20,07,03,14.40
2015,05,20,07,04,14.30
2015,05,20,07,05,14.30
2015,05,20,07,06,14.30
2015,05,20,07,07,14.30
2015,05,20,07,08,14.30
2015,05,20,07,09,14.30
2015,05,20,07,10,14.30
2015,05,20,07,11,14.30
2015,05,20,07,12,14.30
2015,05,20,07,13,14.30
2015,05,20,07,14,14.30
2015,05,20,07,15,14.40
2015,05,20,07,16,14.40
2015,05,20,07,17,14.40
2015,05,20,07,18,14.50
2015,05,20,07,19,14.50
2015,05,20,07,20,14.50
2015,05,20,07,21,14.60
2015,05,20,07,22,14.60
2015,05,20,07,23,14.60
2015,05,20,07,24,14.60
2015,05,20,07,25,14.60
2015,05,20,07,26,14.60
2015,05,20,07,27,14.60
2015,05,20,07,28,14.60
2015,05,20,07,29,14.60
2015,05,20,07,30,14.60
2015,05,20,07,31,14.60
2015,05,20,07,32,14.60
2015,05,20,07,33,14.60
2015,05,20,07,34,14.60
2015,05,20,07,35,14.60
2015,05,20,07,36,14.60
2015,05,20,07,37,14.60
2015,05,20,07,38,14.60
2015,05,20,07,39,14.60
2015,05,20,07,40,14.60
2015,05,20,07,41,14.60
2015,05,20,07,42,14.60
2015,05,20,07,43,14.70
2015,05,20,07,44,14.70
2015,05,20,07,45,14.70
2015,05,20,07,46,14.70
2015,05,20,07,47,14.80
2015,05,20,07,48,14.80
2015,05,20,07,49,14.90
2015,05,20,07,50,15.00
2015,05,20,07,51,15.00
2015,05,20,07,52,15.00
2015,05,20,07,53,15.10
2015,05,20,07,54,15.20
2015,05,20,07,55,15.30
2015,05,20,07,56,15.30
2015,05,20,07,57,15.40
2015,05,20,07,58,15.50
2015,05,20,07,59,15.60
2015,05,20,08,00,15.70
2015,05,20,08,01,15.80
2015,05,20,08,02,15.90
2015,05,20,08,03,16.10
2015,05,20,08,04,16.30
2015,05,20,08,05,16.40
2015,05,20,08,06,16.50
2015,05,20,08,07,16.60
2015,05,20,08,08,16.60
2015,05,20,08,09,16.70
2015,05,20,08,10,16.70
2015,05,20,08,11,16.70
2015,05,20,08,12,16.70
2015,05,20,08,13,16.80
2015,05,20,08,14,16.80
2015,05,20,08,15,16.90
2015,05,20,08,16,16.90
2015,05,20,08,17,16.90
2015,05,20,08,18,17.00
2015,05,20,08,19,17.10
2015,05,20,08,20,17.10
2015,05,20,08,21,17.10
2015,05,20,08,22,17.10
2015,05,20,08,23,17.10
2015,05,20,08,24,17.00
2015,05,20,08,25,16.90
2015,05,20,08,26,16.90
2015,05,20,08,27,16.90
2015,05,20,08,28,16.80
2015,05,20,08,29,16.80
2015,05,20,08,30,16.70
2015,05,20,08,31,16.70
2015,05,20,08,32,16.70
2015,05,20,08,33,16.70
2015,05,20,08,34,16.70
2015,05,20,08,35,16.70
2015,05,20,08,36,16.80
2015,05,20,08,37,16.80
2015,05,20,08,38,16.80
2015,05,20,08,39,16.80
2015,05,20,08,40,16.80
2015,05,20,08,41,16.80
2015,05,20,08,42,16.90
2015,05,20,08,43,16.90
2015,05,20,08,44,17.00
2015,05,20,08,45,17.00
2015,05,20,08,46,17.00
2015,05,20,08,47,16.90
2015,05,20,08,48,16.90
2015,05,20,08,49,16.90
2015,05,20,08,50,16.90
2015,05,20,08,51,16.80
2015,05,20,08,52,16.80
2015,05,20,08,53,16.90
2015,05,20,08,54,16.90
2015,05,20,08,55,16.90
2015,05,20,08,56,16.90
2015,05,20,08,57,16.90
2015,05,20,08,58,17.00
2015,05,20,08,59,17.00
2015,05,20,09,00,17.10
2015,05,20,09,01,17.20
2015,05,20,09,02,17.30
2015,05,20,09,03,17.30
2015,05,20,09,04,17.30
2015,05,20,09,05,17.30
2015,05,20,09,06,17.30
2015,05,20,09,07,17.40
2015,05,20,09,08,17.40
2015,05,20,09,09,17.40
2015,05,20,09,10,17.40
2015,05,20,09,11,17.50
2015,05,20,09,12,17.50
2015,05,20,09,13,17.60
2015,05,20,09,14,17.70
2015,05,20,09,15,17.80
2015,05,20,09,16,18.00
2015,05,20,09,17,18.10
2015,05,20,09,18,18.10
2015,05,20,09,19,18.20
2015,05,20,09,20,18.20
2015,05,20,09,21,18.20
2015,05,20,09,22,18.20
2015,05,20,09,23,18.20
2015,05,20,09,24,18.10
2015,05,20,09,25,18.00
2015,05,20,09,26,18.00
2015,05,20,09,27,17.90
2015,05,20,09,28,17.90
2015,05,20,09,29,17.90
2015,05,20,09,30,17.80
2015,05,20,09,31,17.80
2015,05,20,09,32,17.80
2015,05,20,09,33,17.90
2015,05,20,09,34,18.00
2015,05,20,09,35,18.10
2015,05,20,09,36,18.20
2015,05,20,09,37,18.30
2015,05,20,09,38,18.30
2015,05,20,09,39,18.30
2015,05,20,09,40,18.30
2015,05,20,09,41,18.40
2015,05,20,09,42,18.50
2015,05,20,09,43,18.50
2015,05,20,09,44,18.60
2015,05,20,09,45,18.50
2015,05,20,09,46,18.40
2015,05,20,09,47,18.30
2015,05,20,09,48,18.30
2015,05,20,09,49,18.20
2015,05,20,09,50,18.10
2015,05,20,09,51,18.10
2015,05,20,09,52,18.20
2015,05,20,09,53,18.30
2015,05,20,09,54,18.30
2015,05,20,09,55,18.30
2015,05,20,09,56,18.20
2015,05,20,09,57,18.20
2015,05,20,09,58,18.20
2015,05,20,09,59,18.20
2015,05,20,10,00,18.10
2015,05,20,10,01,18.10
2015,05,20,10,02,18.20
2015,05,20,10,03,18.20
2015,05,20,10,04,18.20
2015,05,20,10,05,18.10
2015,05,20,10,06,18.00
2015,05,20,10,07,17.90
2015,05,20,10,08,18.00
2015,05,20,10,09,18.00
2015,05,20,10,10,17.90
2015,05,20,10,11,17.80
2015,05,20,10,12,17.80
2015,05,20,10,13,17.80
2015,05,20,10,14,17.90
2015,05,20,10,15,18.00
2015,05,20,10,16,18.00
2015,05,20,10,17,17.90
2015,05,20,10,18,17.90
2015,05,20,10,19,17.80
2015,05,20,10,20,17.80
2015,05,20,10,21,17.80
2015,05,20,10,22,17.80
2015,05,20,10,23,17.80
2015,05,20,10,24,17.80
2015,05,20,10,25,17.90
2015,05,20,10,26,18.00
2015,05,20,10,27,18.00
2015,05,20,10,28,18.00
2015,05,20,10,29,18.00
2015,05,20,10,30,18.00
2015,05,20,10,31,18.10
2015,05,20,10,32,18.20
2015,05,20,10,33,18.30
2015,05,20,10,34,18.30
2015,05,20,10,35,18.30
2015,05,20,10,36,18.20
2015,05,20,10,37,18.00
2015,05,20,10,38,18.00
2015,05,20,10,39,17.90
2015,05,20,10,40,18.00
2015,05,20,10,41,18.10
2015,05,20,10,42,18.00
2015,05,20,10,43,18.00
2015,05,20,10,44,17.90
2015,05,20,10,45,17.90
2015,05,20,10,46,18.10
2015,05,20,10,47,18.20
2015,05,20,10,48,18.20
2015,05,20,10,49,18.20
2015,05,20,10,50,18.20
2015,05,20,10,51,18.30
2015,05,20,10,52,18.50
2015,05,20,10,53,18.70
2015,05,20,10,54,18.70
2015,05,20,10,55,18.80
2015,05,20,10,56,18.90
2015,05,20,10,57,19.00
2015,05,20,10,58,19.00
2015,05,20,10,59,19.10
2015,05,20,11,00,19.20
2015,05,20,11,01,19.20
2015,05,20,11,02,19.30
2015,05,20,11,03,19.30
2015,05,20,11,04,19.30
2015,05,20,11,05,19.40
2015,05,20,11,06,19.40
2015,05,20,11,07,19.50
2015,05,20,11,08,19.60
2015,05,20,11,09,19.60
2015,05,20,11,10,19.60
2015,05,20,11,11,19.50
2015,05,20,11,12,19.50
2015,05,20,11,13,19.50
2015,05,20,11,14,19.50
2015,05,20,11,15,19.50
2015,05,20,11,16,19.50
2015,05,20,11,17,19.50
2015,05,20,11,18,19.40
2015,05,20,11,19,19.40
2015,05,20,11,20,19.40
2015,05,20,11,21,19.40
2015,05,20,11,22,19.40
2015,05,20,11,23,19.50
2015,05,20,11,24,19.50
2015,05,20,11,25,19.60
2015,05,20,11,26,19.70
2015,05,20,11,27,19.80
2015,05,20,11,28,19.90
2015,05,20,11,29,19.90
2015,05,20,11,30,19.90
2015,05,20,11,31,20.00
2015,05,20,11,32,20.00
2015,05,20,11,33,20.00
2015,05,20,11,34,20.00
2015,05,20,11,35,20.00
2015,05,20,11,36,20.00
2015,05,20,11,37,20.00
2015,05,20,11,38,20.10
2015,05,20,11,39,20.20
2015,05,20,11,40,20.20
2015,05,20,11,41,20.40
2015,05,20,11,42,20.50
2015,05,20,11,43,20.70
2015,05,20,11,44,20.80
2015,05,20,11,45,20.90
2015,05,20,11,46,20.70
2015,05,20,11,47,20.60
2015,05,20,11,48,20.50
2015,05,20,11,49,20.40
2015,05,20,11,50,20.50
2015,05,20,11,51,20.60
2015,05,20,11,52,20.60
2015,05,20,11,53,20.60
2015,05,20,11,54,20.60
2015,05,20,11,55,20.40
2015,05,20,11,56,20.30
2015,05,20,11,57,20.10
2015,05,20,11,58,20.00
2015,05,20,11,59,19.80
2015,05,20,12,00,19.70
2015,05,20,12,01,19.70
2015,05,20,12,02,19.60
2015,05,20,12,03,19.60
2015,05,20,12,04,19.70
2015,05,20,12,05,19.60
2015,05,20,12,06,19.60
2015,05,20,12,07,19.60
2015,05,20,12,08,19.60
2015,05,20,12,09,19.60
2015,05,20,12,10,19.60
2015,05,20,12,11,19.60
2015,05,20,12,12,19.70
2015,05,20,12,13,19.70
2015,05,20,12,14,19.70
2015,05,20,12,15,19.80
2015,05,20,12,16,19.70
2015,05,20,12,17,19.70
2015,05,20,12,18,19.60
2015,05,20,12,19,19.60
2015,05,20,12,20,19.60
2015,05,20,12,21,19.50
2015,05,20,12,22,19.50
2015,05,20,12,23,19.40
2015,05,20,12,24,19.40
2015,05,20,12,25,19.40
2015,05,20,12,26,19.30
2015,05,20,12,27,19.40
2015,05,20,12,28,19.50
2015,05,20,12,29,19.60
2015,05,20,12,30,19.70
2015,05,20,12,31,19.70
2015,05,20,12,32,19.80
2015,05,20,12,33,19.90
2015,05,20,12,34,20.00
2015,05,20,12,35,20.20
2015,05,20,12,36,20.40
2015,05,20,12,37,20.40
2015,05,20,12,38,20.40
2015,05,20,12,39,20.20
2015,05,20,12,40,20.20
2015,05,20,12,41,20.20
2015,05,20,12,42,20.20
2015,05,20,12,43,20.30
2015,05,20,12,44,20.30
2015,05,20,12,45,20.30
2015,05,20,12,46,20.20
2015,05,20,12,47,20.30
2015,05,20,12,48,20.40
2015,05,20,12,49,20.40
2015,05,20,12,50,20.40
2015,05,20,12,51,20.30
2015,05,20,12,52,20.30
2015,05,20,12,53,20.30
2015,05,20,12,54,20.40
2015,05,20,12,55,20.50
2015,05,20,12,56,20.50
2015,05,20,12,57,20.60
2015,05,20,12,58,20.70
2015,05,20,12,59,20.90
2015,05,20,13,00,21.00
2015,05,20,13,01,21.10
2015,05,20,13,02,21.20
2015,05,20,13,03,21.30
2015,05,20,13,04,21.40
2015,05,20,13,05,21.40
2015,05,20,13,06,21.30
2015,05,20,13,07,21.30
2015,05,20,13,08,21.30
2015,05,20,13,09,21.30
2015,05,20,13,10,21.40
2015,05,20,13,11,21.50
2015,05,20,13,12,21.50
2015,05,20,13,13,21.50
2015,05,20,13,14,21.60
2015,05,20,13,15,21.60
2015,05,20,13,16,21.60
2015,05,20,13,17,21.60
2015,05,20,13,18,21.40
2015,05,20,13,19,21.30
2015,05,20,13,20,21.20
2015,05,20,13,21,21.10
2015,05,20,13,22,21.10
2015,05,20,13,23,21.10
2015,05,20,13,24,21.10
2015,05,20,13,25,21.10
2015,05,20,13,26,21.10
2015,05,20,13,27,21.10
2015,05,20,13,28,21.30
2015,05,20,13,29,21.30
2015,05,20,13,30,21.40
2015,05,20,13,31,21.40
2015,05,20,13,32,21.40
2015,05,20,13,33,21.40
2015,05,20,13,34,21.40
2015,05,20,13,35,21.40
2015,05,20,13,36,21.40
2015,05,20,13,37,21.40
2015,05,20,13,38,21.40
2015,05,20,13,39,21.40
2015,05,20,13,40,21.50
2015,05,20,13,41,21.50
2015,05,20,13,42,21.50
2015,05,20,13,43,21.60
2015,05,20,13,44,21.60
2015,05,20,13,45,21.70
2015,05,20,13,46,21.80
2015,05,20,13,47,21.90
2015,05,20,13,48,22.00
2015,05,20,13,49,22.10
2015,05,20,13,50,22.20
2015,05,20,13,51,22.20
2015,05,20,13,52,22.20
2015,05,20,13,53,22.10
2015,05,20,13,54,22.10
2015,05,20,13,55,22.20
2015,05,20,13,56,22.30
2015,05,20,13,57,22.40
2015,05,20,13,58,22.30
2015,05,20,13,59,22.30
2015,05,20,14,00,22.20
2015,05,20,14,01,22.10
2015,05,20,14,02,22.10
2015,05,20,14,03,22.20
2015,05,20,14,04,22.30
2015,05,20,14,05,22.40
2015,05,20,14,06,22.40
2015,05,20,14,07,22.30
2015,05,20,14,08,22.30
2015,05,20,14,09,22.20
2015,05,20,14,10,22.10
2015,05,20,14,11,22.10
2015,05,20,14,12,22.00
2015,05,20,14,13,22.00
2015,05,20,14,14,22.10
2015,05,20,14,15,22.20
2015,05,20,14,16,22.20
2015,05,20,14,17,22.20
2015,05,20,14,18,22.20
2015,05,20,14,19,22.30
2015,05,20,14,20,22.40
2015,05,20,14,21,22.40
2015,05,20,14,22,22.30
2015,05,20,14,23,22.20
2015,05,20,14,24,22.20
2015,05,20,14,25,22.20
2015,05,20,14,26,22.10
2015,05,20,14,27,22.00
2015,05,20,14,28,22.10
2015,05,20,14,29,22.20
2015,05,20,14,30,22.10
2015,05,20,14,31,21.90
2015,05,20,14,32,21.70
2015,05,20,14,33,21.60
2015,05,20,14,34,21.50
2015,05,20,14,35,21.40
2015,05,20,14,36,21.40
2015,05,20,14,37,21.40
2015,05,20,14,38,21.50
2015,05,20,14,39,21.50
2015,05,20,14,40,21.50
2015,05,20,14,41,21.70
2015,05,20,14,42,21.80
2015,05,20,14,43,21.90
2015,05,20,14,44,22.00
2015,05,20,14,45,22.10
2015,05,20,14,46,22.30
2015,05,20,14,47,22.30
2015,05,20,14,48,22.30
2015,05,20,14,49,22.20
2015,05,20,14,50,22.00
2015,05,20,14,51,21.90
2015,05,20,14,52,22.00
2015,05,20,14,53,22.10
2015,05,20,14,54,22.10
2015,05,20,14,55,22.10
2015,05,20,14,56,22.20
2015,05,20,14,57,22.20
2015,05,20,14,58,22.20
2015,05,20,14,59,22.30
2015,05,20,15,00,22.40
2015,05,20,15,01,22.30
2015,05,20,15,02,22.30
2015,05,20,15,03,22.30
2015,05,20,15,04,22.30
2015,05,20,15,05,22.40
2015,05,20,15,06,22.40
2015,05,20,15,07,22.50
2015,05,20,15,08,22.70
2015,05,20,15,09,22.80
2015,05,20,15,10,22.90
2015,05,20,15,11,22.90
2015,05,20,15,12,23.00
2015,05,20,15,13,23.10
2015,05,20,15,14,23.00
2015,05,20,15,15,22.90
2015,05,20,15,16,22.80
2015,05,20,15,17,22.70
2015,05,20,15,18,22.70
2015,05,20,15,19,22.60
2015,05,20,15,20,22.60
2015,05,20,15,21,22.50
2015,05,20,15,22,22.50
2015,05,20,15,23,22.50
2015,05,20,15,24,22.50
2015,05,20,15,25,22.70
2015,05,20,15,26,22.70
2015,05,20,15,27,22.80
2015,05,20,15,28,22.80
2015,05,20,15,29,22.80
2015,05,20,15,30,22.70
2015,05,20,15,31,22.70
2015,05,20,15,32,22.70
2015,05,20,15,33,22.70
2015,05,20,15,34,22.70
2015,05,20,15,35,22.70
2015,05,20,15,36,22.70
2015,05,20,15,37,22.70
2015,05,20,15,38,22.70
2015,05,20,15,39,22.70
2015,05,20,15,40,22.70
2015,05,20,15,41,22.70
2015,05,20,15,42,22.70
2015,05,20,15,43,22.70
2015,05,20,15,44,22.70
2015,05,20,15,45,22.60
2015,05,20,15,46,22.60
2015,05,20,15,47,22.60
2015,05,20,15,48,22.60
2015,05,20,15,49,22.60
2015,05,20,15,50,22.70
2015,05,20,15,51,22.70
2015,05,20,15,52,22.70
2015,05,20,15,53,22.80
2015,05,20,15,54,22.80
2015,05,20,15,55,22.80
2015,05,20,15,56,22.80
2015,05,20,15,57,22.80
2015,05,20,15,58,22.90
2015,05,20,15,59,23.00
2015,05,20,16,00,23.00
2015,05,20,16,01,23.10
2015,05,20,16,02,23.10
2015,05,20,16,03,23.10
2015,05,20,16,04,23.10
2015,05,20,16,05,23.20
2015,05,20,16,06,23.20
2015,05,20,16,07,23.20
2015,05,20,16,08,23.20
2015,05,20,16,09,23.20
2015,05,20,16,10,23.20
2015,05,20,16,11,23.30
2015,05,20,16,12,23.40
2015,05,20,16,13,23.30
2015,05,20,16,14,23.30
2015,05,20,16,15,23.30
2015,05,20,16,16,23.40
2015,05,20,16,17,23.40
2015,05,20,16,18,23.50
2015,05,20,16,19,23.60
2015,05,20,16,20,23.60
2015,05,20,16,21,23.70
2015,05,20,16,22,23.70
2015,05,20,16,23,23.70
2015,05,20,16,24,23.70
2015,05,20,16,25,23.80
2015,05,20,16,26,23.90
2015,05,20,16,27,23.80
2015,05,20,16,28,23.80
2015,05,20,16,29,23.90
2015,05,20,16,30,23.90
2015,05,20,16,31,23.90
2015,05,20,16,32,24.00
2015,05,20,16,33,24.00
2015,05,20,16,34,24.00
2015,05,20,16,35,23.90
2015,05,20,16,36,23.90
2015,05,20,16,37,23.80
2015,05,20,16,38,23.90
2015,05,20,16,39,24.00
2015,05,20,16,40,24.10
2015,05,20,16,41,24.10
2015,05,20,16,42,24.20
2015,05,20,16,43,24.30
2015,05,20,16,44,24.30
2015,05,20,16,45,24.30
2015,05,20,16,46,24.40
2015,05,20,16,47,24.50
2015,05,20,16,48,24.50
2015,05,20,16,49,24.60
2015,05,20,16,50,24.70
2015,05,20,16,51,24.70
2015,05,20,16,52,24.70
2015,05,20,16,53,24.80
2015,05,20,16,54,24.80
2015,05,20,16,55,24.80
2015,05,20,16,56,24.80
2015,05,20,16,57,24.80
2015,05,20,16,58,24.70
2015,05,20,16,59,24.70
2015,05,20,17,00,24.70
2015,05,20,17,01,24.60
2015,05,20,17,02,24.60
2015,05,20,17,03,24.60
2015,05,20,17,04,24.60
2015,05,20,17,05,24.60
2015,05,20,17,06,24.60
2015,05,20,17,07,24.70
2015,05,20,17,08,24.80
2015,05,20,17,09,24.90
2015,05,20,17,10,24.90
2015,05,20,17,11,24.90
2015,05,20,17,12,25.00
2015,05,20,17,13,25.00
2015,05,20,17,14,25.10
2015,05,20,17,15,25.20
2015,05,20,17,16,25.30
2015,05,20,17,17,25.30
2015,05,20,17,18,25.30
2015,05,20,17,19,25.50